OneWeb SL0571

operational
NORAD ID: 55150 Int'l Des: 2023-004 Owner: ONEWEBN Country: UK Constellation: oneweb
LEOCIRCULARPOLARONEWEB_TYPE

Über OneWeb SL0571

Beschreibung wird geladen...

Live-Position

3D-Globus wird geladen...

Nächste Überflüge

Höhenverlauf

Altitude vs Time

uPlot chart will show altitude changes over time

Zweizeiliger Elementsatz

1 55150U 23004L 25352.30723118 .00000038 00000-0 64612-4 0 9991
2 55150 87.9163 11.4065 0000968 50.9658 309.1560 13.18684702145863
Epoch: 18. Dez. 2025 • Age: 12 hours

Aktueller Status

Höhe 1211.3 km
Geschwindigkeit 7.25 km/s
Subsatellitenpunkt -53.39°S, 174.25°E
Startdatum 10. Jan. 2023
Alter 2.9 years
Typ internet

Technische Details

Klassifizierung Payload
Masse 148.00 kg
Trockenmasse 140.00 kg
Gesamtmasse 148.00 kg
Länge 1.30 m
Durchmesser 1.00 m
Spannweite 5.00 m
Form Trapezoid+2 pan
Hersteller ONEWUS
Bus-Typ ARROW
Phasenstatus In Orbit
Besitzer/Staat ONEWEBN/UK

Große Konstellationen

Loading constellations...